AFR608 SOCA-SBFZ

Flight info

Callsign AFR608
Flight time 2h 25m
Altitude 37000
Route URUPU1A URUPU DCT ARNAM UM791 ARMIR UZ60 DOTKU
Aircraft A320/M-SDE3FGHIRWY/LB1

Departure

Time 2026-04-28 19:05
Airport Cayenne – Félix Eboué Airport (SOCA)

Arrival

Time 2026-04-28 21:30
Airport Pinto Martins International Airport (SBFZ)
Time Latitude Longitude Altitude Speed Heading
2026-04-28 18:47 4.82180 -52.36307 29 ft 0 kts 336°
2026-04-28 18:56 4.82165 -52.36300 29 ft 4 kts 338°
2026-04-28 18:56 4.82140 -52.36291 29 ft 4 kts 346°
2026-04-28 18:56 4.82113 -52.36287 29 ft 4 kts
2026-04-28 18:57 4.82093 -52.36295 29 ft 3 kts 63°
2026-04-28 18:57 4.82090 -52.36301 29 ft 0 kts 65°
2026-04-28 18:59 4.82094 -52.36283 29 ft 4 kts 95°
2026-04-28 18:59 4.82063 -52.36255 29 ft 8 kts 156°
2026-04-28 18:59 4.82008 -52.36230 29 ft 10 kts 156°
2026-04-28 19:00 4.81944 -52.36245 29 ft 11 kts 236°
2026-04-28 19:00 4.81911 -52.36312 29 ft 11 kts 244°
2026-04-28 19:00 4.81878 -52.36385 29 ft 12 kts 244°
2026-04-28 19:00 4.81843 -52.36462 28 ft 12 kts 245°
2026-04-28 19:01 4.81808 -52.36539 28 ft 13 kts 245°
2026-04-28 19:01 4.81771 -52.36619 28 ft 13 kts 246°
2026-04-28 19:01 4.81733 -52.36702 28 ft 13 kts 245°
2026-04-28 19:01 4.81694 -52.36787 28 ft 14 kts 245°
2026-04-28 19:02 4.81655 -52.36872 28 ft 13 kts 245°
2026-04-28 19:02 4.81617 -52.36955 28 ft 14 kts 245°
2026-04-28 19:02 4.81565 -52.37068 28 ft 21 kts 246°
2026-04-28 19:02 4.81502 -52.37203 27 ft 20 kts 244°
2026-04-28 19:03 4.81458 -52.37297 27 ft 12 kts 244°
2026-04-28 19:03 4.81444 -52.37375 27 ft 11 kts 282°
2026-04-28 19:03 4.81439 -52.37423 27 ft 5 kts 217°
2026-04-28 19:03 4.81416 -52.37418 27 ft 4 kts 142°
2026-04-28 19:04 4.81426 -52.37368 27 ft 9 kts 66°
2026-04-28 19:04 4.81495 -52.37221 27 ft 52 kts 64°
2026-04-28 19:04 4.81743 -52.36683 28 ft 115 kts 65°
2026-04-28 19:04 4.82142 -52.35801 118 ft 153 kts 65°
2026-04-28 19:05 4.82554 -52.34841 725 ft 154 kts 65°
2026-04-28 19:05 4.82936 -52.33777 1165 ft 168 kts 73°
2026-04-28 19:05 4.83262 -52.32634 1795 ft 175 kts 75°
2026-04-28 19:05 4.83593 -52.31383 2160 ft 197 kts 76°
2026-04-28 19:06 4.83951 -52.29990 2525 ft 216 kts 76°
2026-04-28 19:06 4.84207 -52.28989 2758 ft 230 kts 76°
2026-04-28 19:06 4.84746 -52.26801 3439 ft 248 kts 80°
2026-04-28 19:06 4.84798 -52.25051 4214 ft 253 kts 91°
2026-04-28 19:07 4.84735 -52.23276 4993 ft 258 kts 91°
2026-04-28 19:07 4.84662 -52.21471 5785 ft 260 kts 92°
2026-04-28 19:07 4.84584 -52.19641 6547 ft 264 kts 92°
2026-04-28 19:07 4.84503 -52.17785 7267 ft 269 kts 92°
2026-04-28 19:08 4.84421 -52.15904 7992 ft 273 kts 92°
2026-04-28 19:08 4.84338 -52.13994 8727 ft 276 kts 92°
2026-04-28 19:08 4.84257 -52.12064 9463 ft 279 kts 92°
2026-04-28 19:08 4.84176 -52.10104 10128 ft 284 kts 92°
2026-04-28 19:09 4.84089 -52.08052 10351 ft 306 kts 92°
2026-04-28 19:09 4.83994 -52.05852 10586 ft 324 kts 92°
2026-04-28 19:09 4.83896 -52.03566 11125 ft 331 kts 92°
2026-04-28 19:09 4.83798 -52.01251 11710 ft 336 kts 92°
2026-04-28 19:10 4.83702 -51.98934 12329 ft 339 kts 92°
2026-04-28 19:10 4.83604 -51.96563 12959 ft 342 kts 92°
2026-04-28 19:10 4.83503 -51.94165 13523 ft 347 kts 92°
2026-04-28 19:10 4.83400 -51.91737 14068 ft 351 kts 92°
2026-04-28 19:11 4.83296 -51.89293 14657 ft 351 kts 92°
2026-04-28 19:11 4.83192 -51.86829 15165 ft 355 kts 92°
2026-04-28 19:11 4.83088 -51.84346 15700 ft 357 kts 92°
2026-04-28 19:11 4.82982 -51.81850 16252 ft 359 kts 92°
2026-04-28 19:12 4.82876 -51.79345 16764 ft 362 kts 92°
2026-04-28 19:12 4.82769 -51.76809 17272 ft 364 kts 92°
2026-04-28 19:12 4.82661 -51.74269 17798 ft 367 kts 92°
2026-04-28 19:12 4.82549 -51.71702 18291 ft 369 kts 92°
2026-04-28 19:13 4.82435 -51.69125 18732 ft 371 kts 92°
2026-04-28 19:13 4.82321 -51.66536 19187 ft 373 kts 92°
2026-04-28 19:13 4.82210 -51.63925 19646 ft 375 kts 92°
2026-04-28 19:13 4.82099 -51.61310 20104 ft 376 kts 92°
2026-04-28 19:14 4.81987 -51.58681 20561 ft 378 kts 92°
2026-04-28 19:14 4.81870 -51.56043 21012 ft 380 kts 92°
2026-04-28 19:14 4.81754 -51.53394 21468 ft 382 kts 92°
2026-04-28 19:14 4.81639 -51.50727 21916 ft 383 kts 92°
2026-04-28 19:15 4.81526 -51.48053 22365 ft 385 kts 92°
2026-04-28 19:15 4.81412 -51.45369 22802 ft 387 kts 92°
2026-04-28 19:15 4.81295 -51.42667 23230 ft 389 kts 93°
2026-04-28 19:15 4.81217 -51.40866 23510 ft 390 kts 93°
2026-04-28 19:16 4.81060 -51.37223 23960 ft 392 kts 93°
2026-04-28 19:16 4.80940 -51.34484 24284 ft 394 kts 93°
2026-04-28 19:16 4.80819 -51.31729 24599 ft 397 kts 93°
2026-04-28 19:16 4.80699 -51.28964 24913 ft 399 kts 92°
2026-04-28 19:17 4.80580 -51.26184 25225 ft 400 kts 92°
2026-04-28 19:17 4.80463 -51.23386 25533 ft 402 kts 92°
2026-04-28 19:17 4.80344 -51.20574 25836 ft 404 kts 92°
2026-04-28 19:17 4.80221 -51.17749 26132 ft 406 kts 92°
2026-04-28 19:18 4.80094 -51.14920 26423 ft 408 kts 93°
2026-04-28 19:18 4.79966 -51.12071 26709 ft 410 kts 93°
2026-04-28 19:18 4.79838 -51.09210 26989 ft 412 kts 92°
2026-04-28 19:18 4.79710 -51.06337 27264 ft 414 kts 92°
2026-04-28 19:19 4.79584 -51.03440 27528 ft 416 kts 92°
2026-04-28 19:19 4.79461 -51.00543 27797 ft 417 kts 92°
2026-04-28 19:19 4.79340 -50.97667 28062 ft 419 kts 92°
2026-04-28 19:19 4.79217 -50.94741 28323 ft 421 kts 92°
2026-04-28 19:20 4.79089 -50.91766 28585 ft 423 kts 92°
2026-04-28 19:20 4.78965 -50.88850 28832 ft 425 kts 92°
2026-04-28 19:20 4.78836 -50.85888 29086 ft 426 kts 92°
2026-04-28 19:20 4.78703 -50.82908 29331 ft 428 kts 92°
2026-04-28 19:21 4.78567 -50.79922 29572 ft 430 kts 92°
2026-04-28 19:21 4.78431 -50.76921 29813 ft 432 kts 92°
2026-04-28 19:21 4.78299 -50.73910 30030 ft 433 kts 92°
2026-04-28 19:21 4.78167 -50.70892 30219 ft 435 kts 92°
2026-04-28 19:22 4.78031 -50.67855 30396 ft 437 kts 93°
2026-04-28 19:22 4.77939 -50.65832 30515 ft 438 kts 93°
2026-04-28 19:22 4.77755 -50.61746 30749 ft 440 kts 93°
2026-04-28 19:22 4.77620 -50.58679 30921 ft 441 kts 93°
2026-04-28 19:23 4.77488 -50.55608 31157 ft 441 kts 93°
2026-04-28 19:23 4.77357 -50.52532 31400 ft 441 kts 93°
2026-04-28 19:23 4.77223 -50.49461 31639 ft 441 kts 93°
2026-04-28 19:23 4.77084 -50.46398 31882 ft 441 kts 93°
2026-04-28 19:24 4.76942 -50.43324 32126 ft 441 kts 93°
2026-04-28 19:24 4.76803 -50.40263 32352 ft 441 kts 93°
2026-04-28 19:24 4.76668 -50.37194 32589 ft 441 kts 93°
2026-04-28 19:24 4.76530 -50.34124 32830 ft 441 kts 93°
2026-04-28 19:25 4.76391 -50.31052 33072 ft 441 kts 94°
2026-04-28 19:25 4.76251 -50.27985 33320 ft 441 kts 94°
2026-04-28 19:25 4.76114 -50.24916 33561 ft 440 kts 94°
2026-04-28 19:25 4.75979 -50.21848 33809 ft 440 kts 94°
2026-04-28 19:26 4.75843 -50.18785 34051 ft 440 kts 94°
2026-04-28 19:26 4.75707 -50.15716 34261 ft 440 kts 94°
2026-04-28 19:26 4.75575 -50.12660 34462 ft 440 kts 94°
2026-04-28 19:26 4.75441 -50.09630 34644 ft 440 kts 94°
2026-04-28 19:27 4.75301 -50.06564 34839 ft 440 kts 94°
2026-04-28 19:27 4.75160 -50.03469 35022 ft 440 kts 94°
2026-04-28 19:27 4.75020 -50.00435 35181 ft 441 kts 94°
2026-04-28 19:27 4.74875 -49.97326 35359 ft 441 kts 94°
2026-04-28 19:28 4.74734 -49.94255 35519 ft 441 kts 94°
2026-04-28 19:28 4.74596 -49.91184 35691 ft 441 kts 94°
2026-04-28 19:28 4.74457 -49.88115 35870 ft 441 kts 94°
2026-04-28 19:28 4.74319 -49.85042 36010 ft 441 kts 94°
2026-04-28 19:29 4.74184 -49.82016 36170 ft 441 kts 94°
2026-04-28 19:29 4.74089 -49.79945 36269 ft 441 kts 95°
2026-04-28 19:29 4.73899 -49.75872 36443 ft 442 kts 95°
2026-04-28 19:29 4.73755 -49.72755 36593 ft 442 kts 95°
2026-04-28 19:30 4.73613 -49.69669 36721 ft 442 kts 95°
2026-04-28 19:30 4.73259 -49.66625 36877 ft 440 kts 104°
2026-04-28 19:30 4.72368 -49.63737 36951 ft 439 kts 115°
2026-04-28 19:30 4.70905 -49.61002 36962 ft 441 kts 125°
2026-04-28 19:31 4.66962 -49.56277 36959 ft 446 kts 133°
2026-04-28 19:31 4.62855 -49.51611 36965 ft 451 kts 131°
2026-04-28 19:32 4.58703 -49.46858 36958 ft 455 kts 132°
2026-04-28 19:32 4.54499 -49.42089 36960 ft 458 kts 132°
2026-04-28 19:33 4.50257 -49.37302 36956 ft 461 kts 132°
2026-04-28 19:33 4.45995 -49.32495 36955 ft 462 kts 132°
2026-04-28 19:34 4.41739 -49.27661 36955 ft 462 kts 132°
2026-04-28 19:34 4.38202 -49.23650 36972 ft 462 kts 132°
2026-04-28 19:35 4.33930 -49.18828 36967 ft 463 kts 132°
2026-04-28 19:35 4.29651 -49.14001 36972 ft 463 kts 132°
2026-04-28 19:36 4.25366 -49.09157 36964 ft 465 kts 132°
2026-04-28 19:36 4.21078 -49.04312 36968 ft 466 kts 133°
2026-04-28 19:37 4.17508 -49.00269 36967 ft 466 kts 133°
2026-04-28 19:37 4.12489 -48.94597 36966 ft 466 kts 133°
2026-04-28 19:38 4.08185 -48.89743 36966 ft 467 kts 132°
2026-04-28 19:38 4.03866 -48.84865 36966 ft 467 kts 132°
2026-04-28 19:39 3.99559 -48.79996 36970 ft 468 kts 132°
2026-04-28 19:39 3.95243 -48.75117 36976 ft 467 kts 133°
2026-04-28 19:40 3.90927 -48.70261 36974 ft 467 kts 132°
2026-04-28 19:40 3.86608 -48.65393 36973 ft 467 kts 132°
2026-04-28 19:41 3.82297 -48.60523 36973 ft 468 kts 132°
2026-04-28 19:41 3.77988 -48.55645 36975 ft 467 kts 132°
2026-04-28 19:42 3.73674 -48.50785 36973 ft 467 kts 132°
2026-04-28 19:42 3.70085 -48.46748 36977 ft 467 kts 132°
2026-04-28 19:43 3.65036 -48.41061 36968 ft 467 kts 132°
2026-04-28 19:43 3.60728 -48.36200 36968 ft 467 kts 132°
2026-04-28 19:44 3.56410 -48.31331 36969 ft 467 kts 132°
2026-04-28 19:44 3.52103 -48.26484 36977 ft 464 kts 132°
2026-04-28 19:45 3.47838 -48.21665 36972 ft 462 kts 132°
2026-04-28 19:45 3.43581 -48.16855 36968 ft 461 kts 132°
2026-04-28 19:46 3.39348 -48.12085 36960 ft 460 kts 132°
2026-04-28 19:46 3.35094 -48.07308 36964 ft 459 kts 132°
2026-04-28 19:47 3.30850 -48.02535 36966 ft 459 kts 132°
2026-04-28 19:47 3.26612 -47.97763 36964 ft 458 kts 132°
2026-04-28 19:48 3.22381 -47.92990 36960 ft 458 kts 132°
2026-04-28 19:48 3.18145 -47.88215 36953 ft 459 kts 132°
2026-04-28 19:49 3.13899 -47.83430 36955 ft 459 kts 132°
2026-04-28 19:49 3.09648 -47.78657 36968 ft 459 kts 131°
2026-04-28 19:50 3.03285 -47.71514 36961 ft 458 kts 131°
2026-04-28 19:51 2.99060 -47.66757 36955 ft 457 kts 131°
2026-04-28 19:51 2.94837 -47.62003 36953 ft 457 kts 131°
2026-04-28 19:52 2.90621 -47.57248 36952 ft 456 kts 131°
2026-04-28 19:52 2.86412 -47.52503 36948 ft 456 kts 131°
2026-04-28 19:53 2.82185 -47.47767 36944 ft 456 kts 131°
2026-04-28 19:53 2.77996 -47.43058 36954 ft 455 kts 131°
2026-04-28 19:54 2.73798 -47.38333 36953 ft 454 kts 131°
2026-04-28 19:54 2.69602 -47.33620 36954 ft 453 kts 131°
2026-04-28 19:55 2.65413 -47.28910 36950 ft 452 kts 131°
2026-04-28 19:55 2.61235 -47.24216 36946 ft 452 kts 131°
2026-04-28 19:56 2.57055 -47.19521 36946 ft 452 kts 131°
2026-04-28 19:56 2.52871 -47.14815 36946 ft 452 kts 131°
2026-04-28 19:57 2.48689 -47.10116 36941 ft 453 kts 131°
2026-04-28 19:57 2.44500 -47.05412 36940 ft 453 kts 131°
2026-04-28 19:58 2.40308 -47.00706 36940 ft 453 kts 131°
2026-04-28 19:58 2.36148 -46.96029 36937 ft 453 kts 131°
2026-04-28 19:59 2.31956 -46.91322 36936 ft 453 kts 131°
2026-04-28 19:59 2.27740 -46.86585 36936 ft 453 kts 131°
2026-04-28 20:00 2.23572 -46.81906 36936 ft 453 kts 131°
2026-04-28 20:00 2.19375 -46.77205 36943 ft 453 kts 131°
2026-04-28 20:01 2.15191 -46.72510 36946 ft 452 kts 131°
2026-04-28 20:01 2.11013 -46.67816 36943 ft 452 kts 131°
2026-04-28 20:02 2.06828 -46.63120 36923 ft 453 kts 131°
2026-04-28 20:02 2.02634 -46.58401 36919 ft 454 kts 131°
2026-04-28 20:03 1.98431 -46.53664 36920 ft 456 kts 131°
2026-04-28 20:03 1.94221 -46.48920 36929 ft 457 kts 131°
2026-04-28 20:04 1.90000 -46.44173 36935 ft 456 kts 131°
2026-04-28 20:04 1.85795 -46.39438 36942 ft 455 kts 131°
2026-04-28 20:05 1.81594 -46.34707 36946 ft 455 kts 131°
2026-04-28 20:05 1.77414 -46.30015 36944 ft 454 kts 131°
2026-04-28 20:06 1.73219 -46.25294 36939 ft 454 kts 131°
2026-04-28 20:06 1.69032 -46.20567 36937 ft 454 kts 131°
2026-04-28 20:07 1.64842 -46.15846 36936 ft 454 kts 131°
2026-04-28 20:07 1.60642 -46.11137 36936 ft 454 kts 131°
2026-04-28 20:08 1.56441 -46.06423 36933 ft 454 kts 131°
2026-04-28 20:08 1.52253 -46.01705 36933 ft 454 kts 131°
2026-04-28 20:09 1.48074 -45.96990 36929 ft 453 kts 131°
2026-04-28 20:09 1.43881 -45.92269 36925 ft 454 kts 131°
2026-04-28 20:10 1.39708 -45.87586 36929 ft 454 kts 131°
2026-04-28 20:10 1.35473 -45.82836 36931 ft 454 kts 131°
2026-04-28 20:11 1.31283 -45.78119 36933 ft 454 kts 131°
2026-04-28 20:11 1.27088 -45.73397 36933 ft 454 kts 131°
2026-04-28 20:12 1.22889 -45.68675 36933 ft 455 kts 131°
2026-04-28 20:12 1.18712 -45.63974 36935 ft 455 kts 131°
2026-04-28 20:13 1.14512 -45.59251 36939 ft 455 kts 131°
2026-04-28 20:13 1.10299 -45.54525 36938 ft 455 kts 131°
2026-04-28 20:14 1.06088 -45.49790 36940 ft 456 kts 131°
2026-04-28 20:14 1.01877 -45.45056 36942 ft 456 kts 131°
2026-04-28 20:15 0.97662 -45.40326 36946 ft 456 kts 131°
2026-04-28 20:15 0.93448 -45.35588 36941 ft 456 kts 131°
2026-04-28 20:16 0.89234 -45.30845 36935 ft 457 kts 131°
2026-04-28 20:16 0.85009 -45.26097 36939 ft 457 kts 131°
2026-04-28 20:17 0.80781 -45.21349 36947 ft 458 kts 131°
2026-04-28 20:17 0.76546 -45.16586 36948 ft 459 kts 131°
2026-04-28 20:18 0.72299 -45.11813 36950 ft 460 kts 131°
2026-04-28 20:18 0.68050 -45.07035 36953 ft 460 kts 131°
2026-04-28 20:19 0.63807 -45.02267 36954 ft 460 kts 131°
2026-04-28 20:19 0.59560 -44.97495 36955 ft 460 kts 131°
2026-04-28 20:20 0.55308 -44.92715 36953 ft 459 kts 131°
2026-04-28 20:20 0.51066 -44.87949 36953 ft 460 kts 131°
2026-04-28 20:21 0.46813 -44.83180 36952 ft 460 kts 131°
2026-04-28 20:21 0.42557 -44.78395 36956 ft 460 kts 131°
2026-04-28 20:22 0.38306 -44.73614 36953 ft 461 kts 131°
2026-04-28 20:22 0.34765 -44.69632 36953 ft 461 kts 131°
2026-04-28 20:23 0.30513 -44.64847 36961 ft 461 kts 131°
2026-04-28 20:23 0.26244 -44.60057 36960 ft 461 kts 131°
2026-04-28 20:24 0.21973 -44.55265 36960 ft 462 kts 131°
2026-04-28 20:24 0.17705 -44.50465 36962 ft 462 kts 131°
2026-04-28 20:25 0.13431 -44.45665 36965 ft 462 kts 131°
2026-04-28 20:25 0.09158 -44.40873 36960 ft 462 kts 131°
2026-04-28 20:26 0.04883 -44.36067 36957 ft 463 kts 131°
2026-04-28 20:26 0.00607 -44.31255 36962 ft 463 kts 131°
2026-04-28 20:27 -0.03671 -44.26444 36964 ft 463 kts 131°
2026-04-28 20:27 -0.07942 -44.21642 36962 ft 462 kts 130°
2026-04-28 20:28 -0.12215 -44.16840 36967 ft 462 kts 130°
2026-04-28 20:28 -0.16486 -44.12039 36967 ft 462 kts 130°
2026-04-28 20:29 -0.20729 -44.07271 36968 ft 462 kts 130°
2026-04-28 20:29 -0.25026 -44.02437 36965 ft 462 kts 130°
2026-04-28 20:30 -0.29211 -43.97746 36966 ft 462 kts 131°
2026-04-28 20:30 -0.33476 -43.92961 36969 ft 462 kts 130°
2026-04-28 20:31 -0.37740 -43.88169 36971 ft 461 kts 130°
2026-04-28 20:31 -0.42002 -43.83375 36968 ft 461 kts 130°
2026-04-28 20:32 -0.46256 -43.78592 36967 ft 460 kts 130°
2026-04-28 20:32 -0.50515 -43.73813 36966 ft 460 kts 130°
2026-04-28 20:33 -0.54770 -43.69044 36964 ft 459 kts 130°
2026-04-28 20:33 -0.59018 -43.64280 36961 ft 459 kts 130°
2026-04-28 20:34 -0.63249 -43.59513 36963 ft 458 kts 130°
2026-04-28 20:34 -0.67468 -43.54756 36965 ft 458 kts 130°
2026-04-28 20:35 -0.71698 -43.50010 36961 ft 457 kts 130°
2026-04-28 20:35 -0.75928 -43.45262 36958 ft 457 kts 130°
2026-04-28 20:36 -0.80148 -43.40522 36959 ft 456 kts 130°
2026-04-28 20:36 -0.84343 -43.35817 36969 ft 456 kts 129°
2026-04-28 20:37 -0.88546 -43.31093 36964 ft 454 kts 129°
2026-04-28 20:37 -0.92739 -43.26371 36966 ft 453 kts 129°
2026-04-28 20:38 -0.96921 -43.21660 36962 ft 453 kts 129°
2026-04-28 20:38 -1.01139 -43.16928 36960 ft 453 kts 129°
2026-04-28 20:39 -1.05292 -43.12266 36962 ft 453 kts 129°
2026-04-28 20:39 -1.09473 -43.07558 36961 ft 452 kts 129°
2026-04-28 20:40 -1.13652 -43.02859 36964 ft 452 kts 129°
2026-04-28 20:40 -1.17827 -42.98168 36960 ft 452 kts 129°
2026-04-28 20:41 -1.22004 -42.93472 36962 ft 452 kts 129°
2026-04-28 20:41 -1.26175 -42.88784 36963 ft 452 kts 129°
2026-04-28 20:42 -1.30339 -42.84091 36959 ft 452 kts 129°
2026-04-28 20:42 -1.34513 -42.79389 36959 ft 451 kts 129°
2026-04-28 20:43 -1.38681 -42.74698 36959 ft 451 kts 129°
2026-04-28 20:43 -1.42839 -42.69997 36957 ft 452 kts 129°
2026-04-28 20:44 -1.47005 -42.65286 36954 ft 452 kts 129°
2026-04-28 20:44 -1.51166 -42.60582 36951 ft 452 kts 129°
2026-04-28 20:45 -1.55330 -42.55871 36949 ft 452 kts 129°
2026-04-28 20:45 -1.59492 -42.51161 36950 ft 452 kts 129°
2026-04-28 20:46 -1.63658 -42.46440 36952 ft 452 kts 129°
2026-04-28 20:46 -1.67820 -42.41732 36952 ft 452 kts 129°
2026-04-28 20:47 -1.72001 -42.37015 36944 ft 453 kts 129°
2026-04-28 20:47 -1.76165 -42.32299 36946 ft 453 kts 129°
2026-04-28 20:48 -1.80340 -42.27574 36948 ft 453 kts 129°
2026-04-28 20:48 -1.84521 -42.22853 36943 ft 454 kts 129°
2026-04-28 20:49 -1.88703 -42.18118 36942 ft 454 kts 129°
2026-04-28 20:49 -1.92880 -42.13389 36945 ft 454 kts 129°
2026-04-28 20:50 -1.97065 -42.08648 36946 ft 454 kts 129°
2026-04-28 20:50 -2.01243 -42.03922 36948 ft 454 kts 129°
2026-04-28 20:51 -2.05429 -41.99179 36942 ft 454 kts 129°
2026-04-28 20:51 -2.09603 -41.94447 36945 ft 454 kts 129°
2026-04-28 20:52 -2.13786 -41.89708 36950 ft 454 kts 129°
2026-04-28 20:52 -2.17968 -41.84977 36948 ft 454 kts 129°
2026-04-28 20:53 -2.24286 -41.77916 36947 ft 454 kts 130°
2026-04-28 20:53 -2.28497 -41.73214 36942 ft 454 kts 130°
2026-04-28 20:54 -2.32710 -41.68499 36945 ft 454 kts 130°
2026-04-28 20:54 -2.36919 -41.63786 36945 ft 455 kts 130°
2026-04-28 20:55 -2.41130 -41.59065 36940 ft 455 kts 130°
2026-04-28 20:55 -2.45320 -41.54376 36939 ft 455 kts 130°
2026-04-28 20:56 -2.49542 -41.49660 36944 ft 456 kts 131°
2026-04-28 20:56 -2.53770 -41.44940 36943 ft 456 kts 130°
2026-04-28 20:57 -2.57989 -41.40207 36938 ft 456 kts 130°
2026-04-28 20:57 -2.62219 -41.35463 36931 ft 458 kts 130°
2026-04-28 20:58 -2.66466 -41.30705 36929 ft 459 kts 130°
2026-04-28 20:58 -2.70716 -41.25941 36933 ft 459 kts 130°
2026-04-28 20:59 -2.74981 -41.21167 36937 ft 460 kts 130°
2026-04-28 20:59 -2.79248 -41.16398 36941 ft 460 kts 130°
2026-04-28 21:00 -2.83505 -41.11632 36946 ft 460 kts 130°
2026-04-28 21:00 -2.87774 -41.06846 36954 ft 460 kts 130°
2026-04-28 21:01 -2.92038 -41.02059 36952 ft 460 kts 130°
2026-04-28 21:01 -2.96294 -40.97291 36954 ft 460 kts 130°
2026-04-28 21:02 -3.00556 -40.92512 36955 ft 460 kts 130°
2026-04-28 21:02 -3.04815 -40.87741 36956 ft 460 kts 130°
2026-04-28 21:03 -3.09084 -40.82958 36949 ft 460 kts 130°
2026-04-28 21:03 -3.13350 -40.78187 36953 ft 461 kts 130°
2026-04-28 21:04 -3.17627 -40.73399 36950 ft 461 kts 130°
2026-04-28 21:04 -3.21883 -40.68609 36953 ft 460 kts 130°
2026-04-28 21:05 -3.26145 -40.63831 36960 ft 460 kts 130°
2026-04-28 21:05 -3.30402 -40.59064 36961 ft 459 kts 130°
2026-04-28 21:06 -3.34544 -40.54248 36955 ft 458 kts 123°
2026-04-28 21:06 -3.36906 -40.49514 36961 ft 454 kts 106°
2026-04-28 21:07 -3.38234 -40.43349 36962 ft 453 kts 101°
2026-04-28 21:07 -3.39633 -40.36246 36658 ft 438 kts 101°
2026-04-28 21:08 -3.40039 -40.34219 35917 ft 443 kts 101°
2026-04-28 21:08 -3.40648 -40.31171 35048 ft 447 kts 101°
2026-04-28 21:08 -3.41255 -40.28122 34359 ft 447 kts 101°
2026-04-28 21:08 -3.41859 -40.25091 33443 ft 441 kts 101°
2026-04-28 21:09 -3.42452 -40.22100 32418 ft 437 kts 101°
2026-04-28 21:09 -3.43042 -40.19119 31676 ft 436 kts 101°
2026-04-28 21:09 -3.43626 -40.16158 31135 ft 432 kts 101°
2026-04-28 21:09 -3.44207 -40.13218 30598 ft 428 kts 101°
2026-04-28 21:10 -3.44783 -40.10315 29978 ft 422 kts 101°
2026-04-28 21:10 -3.45351 -40.07442 29455 ft 418 kts 101°
2026-04-28 21:10 -3.45911 -40.04609 28997 ft 413 kts 101°
2026-04-28 21:10 -3.46467 -40.01808 28538 ft 408 kts 101°
2026-04-28 21:11 -3.47017 -39.99039 28093 ft 403 kts 101°
2026-04-28 21:11 -3.47556 -39.96314 27651 ft 398 kts 101°
2026-04-28 21:11 -3.48092 -39.93597 27195 ft 395 kts 101°
2026-04-28 21:11 -3.48618 -39.90924 26757 ft 391 kts 101°
2026-04-28 21:12 -3.49145 -39.88256 26306 ft 388 kts 101°
2026-04-28 21:12 -3.49666 -39.85616 25837 ft 386 kts 101°
2026-04-28 21:12 -3.50185 -39.82990 25391 ft 384 kts 101°
2026-04-28 21:12 -3.50697 -39.80414 24918 ft 382 kts 101°
2026-04-28 21:13 -3.51213 -39.77810 24450 ft 380 kts 101°
2026-04-28 21:13 -3.51725 -39.75214 24183 ft 379 kts 101°
2026-04-28 21:13 -3.52234 -39.72635 23477 ft 378 kts 101°
2026-04-28 21:13 -3.52743 -39.70067 22983 ft 375 kts 101°
2026-04-28 21:14 -3.53249 -39.67527 22450 ft 368 kts 101°
2026-04-28 21:14 -3.53742 -39.65042 22012 ft 362 kts 101°
2026-04-28 21:14 -3.54227 -39.62580 21558 ft 359 kts 101°
2026-04-28 21:14 -3.54716 -39.60103 21109 ft 357 kts 101°
2026-04-28 21:15 -3.55190 -39.57706 20671 ft 355 kts 101°
2026-04-28 21:15 -3.55665 -39.55290 20236 ft 353 kts 101°
2026-04-28 21:15 -3.56138 -39.52885 19801 ft 351 kts 101°
2026-04-28 21:15 -3.56610 -39.50494 19371 ft 350 kts 101°
2026-04-28 21:16 -3.57081 -39.48100 18937 ft 349 kts 101°
2026-04-28 21:16 -3.57547 -39.45725 18510 ft 348 kts 101°
2026-04-28 21:16 -3.58015 -39.43354 18064 ft 347 kts 101°
2026-04-28 21:16 -3.58482 -39.40992 17618 ft 344 kts 101°
2026-04-28 21:17 -3.58944 -39.38656 17205 ft 341 kts 101°
2026-04-28 21:17 -3.59399 -39.36354 16799 ft 334 kts 101°
2026-04-28 21:17 -3.59844 -39.34082 16406 ft 332 kts 101°
2026-04-28 21:17 -3.60286 -39.31818 16012 ft 330 kts 101°
2026-04-28 21:18 -3.60726 -39.29568 15618 ft 329 kts 101°
2026-04-28 21:18 -3.61166 -39.27332 15233 ft 327 kts 101°
2026-04-28 21:18 -3.61607 -39.25103 14847 ft 326 kts 101°
2026-04-28 21:18 -3.62048 -39.22881 14462 ft 325 kts 101°
2026-04-28 21:19 -3.62486 -39.20666 14085 ft 324 kts 101°
2026-04-28 21:19 -3.62917 -39.18461 13694 ft 323 kts 101°
2026-04-28 21:19 -3.63346 -39.16263 13275 ft 321 kts 101°
2026-04-28 21:19 -3.63775 -39.14072 12887 ft 319 kts 101°
2026-04-28 21:20 -3.64202 -39.11907 12496 ft 316 kts 101°
2026-04-28 21:20 -3.64627 -39.09751 12109 ft 314 kts 101°
2026-04-28 21:20 -3.65043 -39.07634 11725 ft 306 kts 101°
2026-04-28 21:20 -3.65452 -39.05552 11343 ft 304 kts 101°
2026-04-28 21:21 -3.65861 -39.03474 10957 ft 303 kts 102°
2026-04-28 21:21 -3.66266 -39.01413 10564 ft 302 kts 102°
2026-04-28 21:21 -3.66671 -38.99349 10169 ft 301 kts 102°
2026-04-28 21:21 -3.67076 -38.97295 9771 ft 300 kts 102°
2026-04-28 21:22 -3.67480 -38.95247 9343 ft 299 kts 102°
2026-04-28 21:22 -3.67880 -38.93217 8919 ft 297 kts 102°
2026-04-28 21:22 -3.68277 -38.91192 8505 ft 292 kts 102°
2026-04-28 21:22 -3.68530 -38.89892 8233 ft 283 kts 102°
2026-04-28 21:23 -3.69015 -38.87387 7722 ft 266 kts 102°
2026-04-28 21:23 -3.69362 -38.85606 7340 ft 255 kts 102°
2026-04-28 21:23 -3.69695 -38.83898 6968 ft 245 kts 103°
2026-04-28 21:23 -3.70010 -38.82284 6617 ft 235 kts 103°
2026-04-28 21:24 -3.70319 -38.80707 6239 ft 228 kts 103°
2026-04-28 21:24 -3.70645 -38.79170 5862 ft 222 kts 105°
2026-04-28 21:24 -3.71019 -38.77678 5422 ft 220 kts 107°
2026-04-28 21:24 -3.71404 -38.76213 5064 ft 214 kts 107°
2026-04-28 21:25 -3.71774 -38.74810 4825 ft 203 kts 107°
2026-04-28 21:25 -3.72129 -38.73456 4388 ft 199 kts 107°
2026-04-28 21:25 -3.72475 -38.72130 3991 ft 193 kts 107°
2026-04-28 21:25 -3.72807 -38.70850 3625 ft 188 kts 107°
2026-04-28 21:26 -3.73136 -38.69600 3258 ft 182 kts 108°
2026-04-28 21:26 -3.73468 -38.68404 2873 ft 175 kts 108°
2026-04-28 21:26 -3.73820 -38.67237 2468 ft 174 kts 109°
2026-04-28 21:26 -3.74173 -38.66115 2274 ft 164 kts 108°
2026-04-28 21:27 -3.74470 -38.65057 2075 ft 150 kts 107°
2026-04-28 21:27 -3.74744 -38.64076 1912 ft 144 kts 106°
2026-04-28 21:27 -3.75004 -38.63116 1697 ft 142 kts 106°
2026-04-28 21:27 -3.75271 -38.62170 1486 ft 141 kts 106°
2026-04-28 21:28 -3.75530 -38.61225 1284 ft 140 kts 105°
2026-04-28 21:28 -3.75772 -38.60280 1143 ft 140 kts 104°
2026-04-28 21:28 -3.76017 -38.59340 1011 ft 140 kts 105°
2026-04-28 21:28 -3.76270 -38.58404 848 ft 139 kts 105°
2026-04-28 21:29 -3.76519 -38.57469 651 ft 139 kts 104°
2026-04-28 21:29 -3.76768 -38.56538 477 ft 138 kts 104°
2026-04-28 21:29 -3.77016 -38.55613 318 ft 138 kts 104°
2026-04-28 21:29 -3.77257 -38.54693 145 ft 136 kts 104°
2026-04-28 21:30 -3.77480 -38.53832 95 ft 107 kts 105°
2026-04-28 21:30 -3.77627 -38.53277 92 ft 62 kts 105°
2026-04-28 21:30 -3.77714 -38.52952 92 ft 35 kts 105°
2026-04-28 21:30 -3.77771 -38.52736 93 ft 30 kts 105°
2026-04-28 21:31 -3.77813 -38.52613 93 ft 8 kts 141°
2026-04-28 21:31 -3.77855 -38.52628 91 ft 8 kts 227°
2026-04-28 21:31 -3.77898 -38.52711 91 ft 16 kts 244°
2026-04-28 21:31 -3.77906 -38.52809 92 ft 14 kts 285°
2026-04-28 21:32 -3.77880 -38.52905 93 ft 18 kts 285°
2026-04-28 21:32 -3.77841 -38.53050 91 ft 23 kts 285°
2026-04-28 21:32 -3.77798 -38.53208 92 ft 24 kts 285°
2026-04-28 21:32 -3.77753 -38.53372 94 ft 25 kts 284°
2026-04-28 21:33 -3.77708 -38.53543 93 ft 26 kts 285°
2026-04-28 21:33 -3.77670 -38.53683 91 ft 21 kts 286°
2026-04-28 21:33 -3.77677 -38.53781 92 ft 13 kts 239°
2026-04-28 21:33 -3.77710 -38.53838 92 ft 4 kts 240°
2026-04-28 21:34 -3.77722 -38.53859 92 ft 5 kts 242°
2026-04-28 21:34 -3.77730 -38.53899 92 ft 6 kts 270°
2026-04-28 21:34 -3.77721 -38.53938 91 ft 6 kts 285°
2026-04-28 21:34 -3.77704 -38.53998 92 ft 10 kts 285°
2026-04-28 21:35 -3.77687 -38.54062 91 ft 9 kts 284°
2026-04-28 21:35 -3.77717 -38.54102 91 ft 8 kts 190°
2026-04-28 21:35 -3.77757 -38.54111 93 ft 3 kts 194°
2026-04-28 21:35 -3.77771 -38.54114 91 ft 0 kts 194°